Retour au catalogue

STARLINK-31623

ActifCommunicationsVLEO
NORAD 59272·PAYLOAD·🇺🇸 United States

Lancé Mar 19, 2024 depuis Vandenberg Space Force Base

Loading…

Prochains Passages (prochaines 24 heures)

TLE

FraisSource: CelesTrak SupGP

Époque: Sep 15, 2026, 02:16 UTC

1 59272C 24050U   26258.09493056  .00024537  00000+0  72475-3 0  2581
2 59272  53.1596  18.6263 0001027  98.9616 277.9208 15.34387897    12

Suivez STARLINK-31623 en temps réel avec AllMySat

Download on the App Store